TECHEDSAT 6 (43026 NORAD) Tracking and Keplerian Element Data

This shows tracking and keplerian element data for the satellite.

Feedback or suggestion? Click here.




ElementValue
Catalog43026
NameTECHEDSAT 6
Epoch Orbit2743
Epoch Day135.04917276
Epoch Year2018
RAAN164.5237
Inclination51.6059
Eccentricity0.0004943
Argument of Perigee311.1143
Mean Anonmoly50.3672
Mean Motion16.36895032
Decay Rate0.24108771
L11 43026U 98067NK 18135.04917276 .24108771 12366-4 25107-2 0 9998
L22 43026 51.6059 164.5237 0004943 311.1143 50.3672 16.36895032 27437



Live tracking and technical data element details for TECHEDSAT 6 (NORAD 43026). TECHEDSAT 6 can be tracked NOW for your location showing map with azimuth and elevation plus other details from your city location.







IsCatalogInMostPopularTable: catalog: 43026, numindb: 642
Update: records affected: 1



GetName: 43026 TECHEDSAT 6

Hit Count: updated at: Mon, 17 Jun 2024 22:56:27 GMT